QPF
0.00 0.00 0.00 0.00 0.00 0.00 0.00 0.00 0.00 0.00 0.00 0.00 0.00 0.00 0.00 0.00 0.00 0.00 0.00 0.00 0.00 0.00 0.00 0.00 0.00 0.00 0.00 0.00 0.00 0.00 0.00 0.00 0.00 0.00 0.00 0.00 0.00 0.00 0.00 0.00 0.00 0.00 0.00 0.00 0.02
0.00 0.00 0.00 0.00 0.00 0.00 0.00 0.00 0.00 0.00 0.00 0.00 0.00 0.00 0.00 0.00 0.00 0.00 0.00 0.00 0.00 0.00 0.00 0.00 0.00 0.00 0.00 0.00 0.00 0.00 0.00 0.00 0.00 0.00 0.00 0.00 0.00 0.00 0.00 0.00 0.00 0.00 0.00 0.01 0.04
0.00 0.00 0.00 0.00 0.00 0.00 0.00 0.00 0.00 0.00 0.00 0.00 0.00 0.00 0.00 0.00 0.00 0.00 0.00 0.00 0.00 0.00 0.00 0.00 0.00 0.00 0.00 0.00 0.00 0.00 0.00 0.00 0.00 0.00 0.00 0.00 0.00 0.00 0.00 0.00 0.00 0.00 0.00 0.00 0.00
0.00 0.00 0.00 0.00 0.00 0.00 0.00 0.00 0.00 0.00 0.00 0.00 0.00 0.00 0.00 0.00 0.00 0.00 0.00 0.00 0.00 0.00 0.00 0.00 0.00 0.00 0.00 0.00 0.00 0.00 0.00 0.00 0.00 0.00 0.00 0.00 0.00 0.00 0.00 0.00 0.00 0.00 0.00 0.00 0.00
0.00 0.00 0.00 0.00 0.00 0.00 0.00 0.00 0.00 0.00 0.00 0.00 0.00 0.00 0.00 0.00 0.00 0.00 0.00 0.00 0.00 0.00 0.00 0.00 0.00 0.00 0.00 0.00 0.00 0.00 0.00 0.00 0.00 0.00 0.00 0.00 0.00 0.00 0.00 0.00 0.00 0.00 0.00 0.00 0.00
0.00 0.00 0.00 0.00 0.00 0.00 0.00 0.00 0.00 0.00 0.00 0.00 0.00 0.00 0.00 0.00 0.00 0.00 0.00 0.00 0.00 0.00 0.00 0.00 0.00 0.00 0.00 0.00 0.00 0.00 0.00 0.00 0.00 0.00 0.00 0.00 0.00 0.00 0.00 0.00 0.00 0.00 0.00 0.00 0.00
0.00 0.00 0.00 0.00 0.00 0.00 0.00 0.00 0.00 0.00 0.00 0.00 0.00 0.00 0.00 0.00 0.00 0.00 0.00 0.00 0.00 0.00 0.00 0.00 0.00 0.00 0.00 0.00 0.00 0.00 0.00 0.00 0.00 0.00 0.00 0.00 0.00 0.00 0.00 0.00 0.00 0.00 0.00 0.00 0.00
0.00 0.00 0.00 0.00 0.00 0.00 0.00 0.00 0.00 0.00 0.00 0.00 0.00 0.00 0.00 0.00 0.00 0.00 0.00 0.00 0.00 0.00 0.00 0.00 0.00 0.00 0.00 0.00 0.00 0.00 0.00 0.00 0.00 0.00 0.00 0.00 0.00 0.00 0.00 0.00 0.00 0.00 0.00 0.00 0.00
0.00 0.00 0.00 0.00 0.00 0.00 0.00 0.00 0.00 0.00 0.00 0.00 0.00 0.00 0.00 0.00 0.00 0.00 0.00 0.00 0.00 0.00 0.00 0.00 0.00 0.00 0.00 0.00 0.00 0.00 0.00 0.00 0.00 0.00 0.00 0.00 0.00 0.00 0.00 0.00 0.00 0.00 0.00 0.00 0.00
0.00 0.00 0.00 0.00 0.00 0.00 0.00 0.00 0.00 0.00 0.00 0.00 0.00 0.00 0.00 0.00 0.00 0.00 0.00 0.00 0.00 0.00 0.00 0.00 0.00 0.00 0.00 0.00 0.00 0.00 0.00 0.00 0.00 0.00 0.00 0.00 0.00 0.00 0.00 0.00 0.00 0.00 0.00 0.00 0.00
0.00 0.00 0.00 0.00 0.00 0.00 0.00 0.00 0.00 0.00 0.00 0.00 0.00 0.00 0.00 0.00 0.00 0.00 0.00 0.00 0.00 0.00 0.00 0.00 0.00 0.00 0.00 0.00 0.00 0.00 0.00 0.00 0.00 0.00 0.00 0.00 0.00 0.00 0.00 0.00 0.00 0.00 0.00 0.00 0.00
0.00 0.00 0.00 0.00 0.00 0.00 0.00 0.00 0.00 0.00 0.00 0.00 0.00 0.00 0.00 0.00 0.00 0.00 0.00 0.00 0.00 0.00 0.00 0.00 0.00 0.00 0.00 0.00 0.00 0.00 0.00 0.00 0.00 0.00 0.00 0.00 0.00 0.00 0.00 0.00 0.00 0.00 0.00 0.00 0.00
0.00 0.00 0.00 0.00 0.00 0.00 0.00 0.00 0.00 0.00 0.00 0.00 0.00 0.00 0.00 0.00 0.00 0.00 0.00 0.00 0.00 0.00 0.00 0.00 0.00 0.00 0.00 0.00 0.00 0.00 0.00 0.00 0.00 0.00 0.00 0.00 0.00 0.00 0.00 0.00 0.00 0.00 0.00 0.00 0.00
0.00 0.00 0.00 0.00 0.00 0.00 0.00 0.00 0.00 0.00 0.00 0.00 0.00 0.00 0.00 0.00 0.00 0.00 0.00 0.00 0.00 0.00 0.00 0.00 0.00 0.00 0.00 0.00 0.00 0.00 0.00 0.00 0.00 0.00 0.00 0.00 0.00 0.00 0.00 0.00 0.00 0.00 0.00 0.00 0.00
0.00 0.00 0.00 0.00 0.00 0.00 0.00 0.00 0.00 0.00 0.00 0.00 0.00 0.00 0.00 0.00 0.00 0.00 0.00 0.00 0.00 0.00 0.00 0.00 0.00 0.00 0.00 0.00 0.00 0.00 0.00 0.00 0.00 0.00 0.00 0.00 0.00 0.00 0.00 0.00 0.00 0.00 0.00 0.00 0.00
0.00 0.00 0.00 0.00 0.00 0.00 0.00 0.00 0.00 0.00 0.00 0.00 0.00 0.00 0.00 0.00 0.00 0.00 0.00 0.00 0.00 0.00 0.00 0.00 0.00 0.00 0.00 0.00 0.00 0.00 0.00 0.00 0.00 0.00 0.00 0.00 0.00 0.00 0.00 0.00 0.00 0.00 0.00 0.00 0.00
0.00 0.00 0.00 0.00 0.00 0.00 0.00 0.00 0.00 0.00 0.00 0.00 0.00 0.00 0.00 0.00 0.00 0.00 0.00 0.00 0.00 0.00 0.00 0.00 0.00 0.00 0.00 0.00 0.00 0.00 0.00 0.00 0.00 0.00 0.00 0.00 0.00 0.00 0.00 0.00 0.00 0.00 0.00 0.00 0.00
0.00 0.00 0.00 0.00 0.00 0.00 0.00 0.00 0.00 0.00 0.00 0.00 0.00 0.00 0.00 0.00 0.00 0.00 0.00 0.00 0.00 0.00 0.00 0.00 0.00 0.00 0.00 0.00 0.00 0.00 0.00 0.00 0.00 0.00 0.00 0.00 0.00 0.00 0.00 0.00 0.00 0.00 0.00 0.00 0.00
0.00 0.00 0.00 0.00 0.00 0.00 0.00 0.00 0.00 0.00 0.00 0.00 0.00 0.00 0.00 0.00 0.00 0.00 0.00 0.00 0.00 0.00 0.00 0.00 0.00 0.00 0.00 0.00 0.00 0.00 0.00 0.00 0.00 0.00 0.00 0.00 0.00 0.00 0.00 0.00 0.00 0.00 0.00 0.00 0.00
0.00 0.00 0.00 0.00 0.00 0.00 0.00 0.00 0.00 0.00 0.00 0.00 0.00 0.00 0.00 0.00 0.00 0.00 0.00 0.00 0.00 0.00 0.00 0.00 0.00 0.00 0.00 0.00 0.00 0.00 0.00 0.00 0.00 0.00 0.00 0.00 0.00 0.00 0.00 0.00 0.00 0.00 0.00 0.00 0.00
0.00 0.00 0.00 0.00 0.00 0.00 0.00 0.00 0.00 0.00 0.00 0.00 0.00 0.00 0.00 0.00 0.00 0.00 0.00 0.00 0.00 0.00 0.00 0.00 0.00 0.00 0.00 0.00 0.00 0.00 0.00 0.00 0.00 0.00 0.00 0.00 0.00 0.00 0.00 0.00 0.00 0.00 0.00 0.00 0.00
0.00 0.00 0.00 0.00 0.00 0.00 0.00 0.00 0.00 0.00 0.00 0.00 0.00 0.00 0.00 0.00 0.00 0.00 0.00 0.00 0.00 0.00 0.00 0.00 0.00 0.00 0.00 0.00 0.00 0.00 0.00 0.00 0.00 0.00 0.00 0.00 0.00 0.00 0.00 0.00 0.00 0.00 0.00 0.00 0.00
0.00 0.00 0.00 0.00 0.00 0.00 0.00 0.00 0.00 0.00 0.00 0.00 0.00 0.00 0.00 0.00 0.00 0.00 0.00 0.00 0.00 0.00 0.00 0.00 0.00 0.00 0.00 0.00 0.00 0.00 0.00 0.00 0.00 0.00 0.00 0.00 0.00 0.00 0.00 0.00 0.00 0.00 0.00 0.00 0.00
0.00 0.00 0.00 0.00 0.00 0.00 0.00 0.00 0.00 0.00 0.00 0.00 0.00 0.00 0.00 0.00 0.00 0.00 0.00 0.00 0.00 0.00 0.00 0.00 0.00 0.00 0.00 0.00 0.00 0.00 0.00 0.00 0.00 0.00 0.00 0.00 0.00 0.00 0.00 0.00 0.00 0.00 0.00 0.00 0.00
0.00 0.00 0.00 0.00 0.00 0.00 0.00 0.00 0.00 0.00 0.00 0.00 0.00 0.00 0.00 0.00 0.00 0.00 0.00 0.00 0.00 0.00 0.00 0.00 0.00 0.00 0.00 0.00 0.00 0.00 0.00 0.00 0.00 0.00 0.00 0.00 0.00 0.00 0.00 0.00 0.00 0.00 0.00 0.00 0.00
0.00 0.00 0.00 0.00 0.00 0.00 0.00 0.00 0.00 0.00 0.00 0.00 0.00 0.00 0.00 0.00 0.00 0.00 0.00 0.00 0.00 0.00 0.00 0.00 0.00 0.00 0.00 0.00 0.00 0.00 0.00 0.00 0.00 0.00 0.00 0.00 0.00 0.00 0.00 0.00 0.00 0.00 0.00 0.00 0.00
0.00 0.00 0.00 0.00 0.00 0.00 0.00 0.00 0.00 0.00 0.00 0.00 0.00 0.00 0.00 0.00 0.00 0.00 0.00 0.00 0.00 0.00 0.00 0.00 0.00 0.00 0.00 0.00 0.00 0.00 0.00 0.00 0.00 0.00 0.00 0.00 0.00 0.00 0.00 0.00 0.00 0.00 0.00 0.00 0.00
MSLP
1018.66 1018.16 1017.72 1017.29 1016.88 1016.51 1016.15 1015.79 1015.45 1015.13 1014.87 1014.66 1014.49 1014.21 1013.93 1013.54 1012.89 1012.92 1012.11 1010.20 1010.03 1010.01 1010.31 1010.35 1010.41 1010.48 1010.72 1010.67 1010.43 1010.89 1011.92 1012.05 1011.26 1009.95 1008.74 1007.26 1006.24 1005.10 1004.97 1005.38 1005.87 1005.95 1007.29 1008.82 1008.92
1018.76 1018.21 1017.70 1017.19 1016.72 1016.36 1016.02 1015.65 1015.25 1014.89 1014.65 1014.47 1014.26 1014.05 1013.75 1013.39 1012.92 1011.62 1009.28 1009.31 1009.60 1009.88 1010.19 1010.23 1010.38 1010.53 1010.87 1010.33 1010.27 1010.73 1011.56 1011.00 1010.05 1009.05 1008.43 1007.45 1006.51 1005.93 1005.37 1005.76 1006.13 1006.78 1007.71 1009.30 1009.53
1018.88 1018.26 1017.66 1017.09 1016.54 1016.09 1015.71 1015.37 1015.05 1014.69 1014.35 1014.20 1014.04 1013.82 1013.65 1013.39 1012.73 1009.80 1008.11 1008.69 1009.35 1009.67 1009.84 1009.93 1010.21 1010.63 1010.72 1010.34 1010.02 1010.19 1010.31 1009.51 1008.60 1007.97 1007.89 1007.25 1006.39 1005.99 1005.70 1006.10 1006.43 1007.35 1008.31 1009.14 1009.57
1018.92 1018.27 1017.62 1017.06 1016.45 1015.91 1015.48 1015.07 1014.73 1014.46 1014.20 1013.97 1013.79 1013.51 1013.37 1013.26 1011.71 1008.64 1008.07 1008.51 1009.18 1009.57 1009.82 1009.86 1010.32 1010.63 1010.33 1010.22 1009.53 1009.78 1009.05 1008.77 1007.74 1007.05 1007.14 1006.81 1006.18 1006.38 1006.38 1006.37 1006.07 1006.38 1007.46 1008.62 1008.99
1018.89 1018.20 1017.53 1016.92 1016.32 1015.69 1015.13 1014.74 1014.43 1014.18 1014.02 1013.82 1013.59 1013.35 1012.99 1012.55 1010.46 1008.27 1008.52 1008.84 1009.34 1009.57 1009.53 1009.81 1009.79 1009.90 1009.93 1009.45 1009.30 1009.40 1008.48 1007.72 1006.82 1006.76 1006.52 1006.09 1006.15 1006.32 1006.29 1006.03 1006.10 1006.26 1007.36 1008.28 1008.72
1018.92 1018.25 1017.50 1016.82 1016.15 1015.50 1014.91 1014.37 1014.02 1013.85 1013.73 1013.59 1013.42 1013.39 1012.98 1011.68 1008.36 1008.04 1008.50 1009.07 1009.03 1009.25 1009.11 1009.50 1009.40 1009.20 1009.20 1009.21 1009.21 1008.42 1008.08 1007.28 1006.54 1006.30 1005.85 1005.84 1005.91 1006.03 1006.03 1005.60 1006.07 1006.41 1006.68 1006.66 1007.12
1018.69 1018.02 1017.35 1016.62 1015.87 1015.19 1014.57 1014.03 1013.65 1013.42 1013.33 1013.28 1013.13 1013.00 1012.38 1009.70 1007.98 1008.15 1008.46 1008.51 1008.42 1008.71 1008.84 1008.67 1008.67 1008.82 1008.94 1008.91 1008.65 1008.34 1008.21 1007.26 1006.60 1006.16 1005.92 1005.85 1005.76 1006.01 1005.80 1005.72 1005.81 1006.16 1006.58 1006.68 1006.61
1018.57 1017.82 1017.07 1016.25 1015.52 1014.85 1014.14 1013.55 1013.24 1013.06 1012.93 1012.89 1012.95 1012.71 1011.23 1008.23 1008.07 1008.47 1008.50 1008.44 1008.13 1008.09 1008.29 1007.98 1007.76 1008.29 1008.79 1008.97 1008.81 1008.92 1008.52 1008.06 1006.72 1006.28 1005.86 1006.43 1005.99 1005.31 1005.21 1005.81 1006.26 1006.25 1006.55 1006.62 1006.61
1018.32 1017.50 1016.71 1015.94 1015.12 1014.38 1013.59 1012.98 1012.68 1012.66 1012.73 1012.75 1012.80 1012.27 1010.29 1007.93 1008.02 1007.36 1007.77 1008.08 1007.58 1007.78 1007.78 1007.40 1007.78 1008.64 1009.10 1009.73 1010.09 1009.84 1009.41 1008.72 1007.40 1006.60 1006.59 1006.74 1006.17 1005.21 1005.04 1005.65 1006.05 1006.14 1006.15 1006.38 1006.32
1018.28 1017.30 1016.37 1015.61 1014.93 1014.09 1013.17 1012.27 1012.15 1012.20 1012.58 1012.49 1012.02 1011.98 1009.22 1007.18 1006.29 1006.39 1006.71 1007.15 1007.63 1007.53 1007.99 1008.08 1008.84 1009.44 1009.96 1010.45 1010.68 1009.98 1009.54 1008.78 1008.07 1006.66 1006.65 1006.37 1005.77 1005.36 1004.95 1005.46 1005.75 1005.90 1005.78 1005.91 1006.11
1018.19 1017.22 1016.18 1015.20 1014.48 1013.86 1013.09 1012.34 1012.48 1012.20 1011.83 1010.83 1010.07 1009.26 1007.55 1006.41 1006.10 1005.99 1006.07 1006.92 1007.19 1007.67 1008.44 1008.72 1009.75 1009.83 1009.53 1009.67 1009.41 1009.59 1009.41 1008.86 1007.74 1006.89 1006.48 1006.31 1006.12 1005.70 1005.13 1005.34 1005.60 1005.63 1005.81 1005.92 1005.72
1017.98 1016.91 1015.68 1014.46 1013.62 1013.35 1013.19 1012.43 1010.91 1010.67 1009.70 1008.83 1008.06 1007.43 1006.63 1006.40 1006.66 1005.79 1005.69 1006.77 1007.37 1008.04 1008.52 1009.33 1009.41 1008.73 1008.90 1008.99 1009.11 1008.84 1008.71 1008.04 1007.33 1006.34 1006.61 1006.41 1006.38 1005.84 1005.75 1005.57 1005.20 1005.17 1005.38 1005.10 1005.11
1017.84 1016.78 1015.55 1014.19 1013.09 1012.89 1012.40 1011.07 1009.63 1009.47 1009.62 1006.87 1005.96 1005.81 1005.70 1005.95 1006.08 1005.78 1005.79 1006.22 1007.20 1008.16 1008.63 1009.03 1007.98 1007.96 1008.44 1008.00 1008.19 1008.01 1007.55 1007.58 1007.30 1006.81 1006.94 1006.95 1006.91 1006.50 1005.91 1005.53 1005.14 1004.84 1004.77 1004.71 1004.69
1017.79 1016.66 1015.75 1014.08 1012.86 1012.99 1011.51 1010.07 1009.49 1009.33 1009.47 1006.86 1004.97 1003.94 1004.39 1004.83 1005.12 1004.53 1005.05 1005.81 1006.94 1007.71 1008.42 1008.51 1007.51 1007.73 1007.60 1007.48 1006.92 1006.98 1006.69 1006.98 1007.34 1007.72 1008.11 1007.76 1007.61 1007.11 1006.38 1005.96 1005.40 1004.74 1004.51 1004.02 1003.65
1017.42 1016.55 1015.57 1015.43 1014.62 1013.15 1010.95 1009.96 1009.59 1009.73 1009.28 1005.48 1004.19 1003.20 1003.48 1004.33 1004.11 1003.91 1004.04 1005.20 1006.32 1007.25 1008.09 1007.60 1007.35 1007.10 1007.04 1006.75 1006.54 1006.86 1006.38 1006.93 1007.49 1008.17 1008.62 1008.66 1008.51 1007.10 1007.01 1006.66 1005.80 1005.26 1004.54 1003.90 1003.26
1016.90 1015.72 1015.49 1014.98 1014.59 1011.72 1010.64 1010.02 1009.87 1010.67 1008.48 1005.67 1004.39 1003.83 1004.24 1004.33 1004.34 1004.14 1004.30 1004.79 1005.67 1006.93 1007.36 1007.36 1006.84 1006.75 1006.23 1005.87 1006.12 1006.42 1006.88 1007.58 1008.51 1009.19 1009.17 1009.38 1009.32 1007.49 1007.97 1007.09 1006.39 1005.43 1004.83 1004.32 1003.65
1016.32 1015.06 1014.79 1014.25 1012.67 1010.95 1010.84 1010.77 1011.32 1010.36 1007.95 1007.13 1006.06 1005.38 1004.99 1005.23 1004.96 1005.00 1005.13 1005.58 1006.27 1007.23 1007.66 1007.47 1007.08 1006.51 1006.32 1006.09 1006.08 1006.91 1008.05 1009.42 1010.37 1010.74 1009.86 1009.96 1009.77 1008.78 1008.18 1008.03 1008.02 1007.11 1006.59 1005.90 1005.14
1015.88 1014.47 1013.77 1012.83 1011.52 1011.67 1011.72 1012.00 1011.76 1010.05 1008.92 1007.97 1007.27 1006.44 1006.47 1006.56 1006.43 1006.25 1006.17 1006.45 1007.06 1007.80 1008.47 1008.59 1008.19 1007.57 1007.34 1007.62 1007.92 1008.12 1009.09 1010.73 1011.60 1012.11 1011.18 1010.86 1009.87 1009.06 1008.74 1008.60 1008.39 1007.98 1007.86 1006.75 1006.33
1015.72 1014.27 1013.52 1011.68 1011.24 1011.78 1012.67 1012.78 1011.51 1010.54 1009.83 1009.13 1008.24 1008.00 1007.83 1007.82 1007.76 1007.61 1007.73 1007.88 1008.60 1008.52 1009.61 1009.79 1009.23 1008.41 1008.35 1008.35 1008.39 1009.33 1010.42 1010.91 1011.96 1012.14 1012.17 1011.41 1010.15 1009.26 1009.17 1009.05 1008.56 1008.57 1008.46 1008.37 1008.06
1017.10 1015.83 1013.43 1011.09 1011.03 1012.01 1013.12 1012.78 1011.50 1010.68 1010.27 1009.85 1009.72 1009.69 1009.82 1009.59 1009.65 1009.65 1009.28 1009.60 1009.72 1010.05 1010.24 1011.12 1011.02 1010.30 1009.41 1009.27 1009.69 1010.16 1010.99 1012.04 1013.52 1014.25 1013.87 1012.69 1011.59 1010.69 1010.66 1010.37 1010.12 1009.39 1009.60 1009.43 1008.83
1017.29 1015.86 1012.40 1011.44 1011.34 1013.06 1013.89 1012.89 1011.88 1011.18 1010.72 1010.81 1010.90 1010.91 1011.11 1011.22 1010.93 1010.81 1010.59 1010.80 1010.73 1010.95 1011.19 1012.09 1012.23 1012.15 1011.38 1011.49 1011.58 1011.91 1012.43 1013.37 1014.58 1015.13 1014.86 1014.47 1012.91 1011.93 1012.13 1011.60 1011.14 1011.04 1010.80 1010.42 1009.76
1019.31 1016.88 1012.34 1012.07 1013.14 1014.08 1014.08 1013.15 1012.15 1011.67 1011.42 1011.56 1011.61 1012.02 1012.38 1012.51 1012.15 1011.81 1011.56 1011.37 1011.46 1011.41 1012.52 1013.19 1013.62 1013.81 1013.43 1012.72 1012.42 1012.62 1013.88 1014.66 1015.89 1016.19 1016.06 1015.50 1013.84 1012.51 1012.28 1012.42 1012.49 1012.28 1011.70 1011.10 1010.75
1020.87 1018.36 1013.59 1013.01 1015.31 1015.99 1015.02 1013.76 1012.72 1012.20 1012.21 1012.29 1012.65 1013.06 1013.14 1013.41 1013.49 1012.82 1012.75 1012.81 1012.46 1012.78 1013.48 1013.99 1014.99 1015.42 1014.85 1014.42 1013.98 1014.37 1014.85 1015.41 1016.03 1016.52 1016.42 1016.20 1014.53 1013.12 1013.32 1013.50 1013.34 1013.05 1012.45 1011.96 1011.06
1021.14 1019.43 1017.22 1016.59 1016.98 1017.07 1016.46 1015.00 1013.90 1012.80 1012.71 1013.03 1013.38 1013.62 1013.87 1014.24 1014.43 1014.29 1013.88 1013.62 1014.00 1014.05 1014.33 1014.83 1016.01 1016.58 1016.60 1016.17 1015.83 1015.75 1015.67 1015.66 1016.21 1017.07 1016.37 1015.73 1014.98 1014.88 1014.88 1014.47 1014.14 1013.54 1013.15 1012.73 1012.04
1021.65 1021.13 1019.88 1019.25 1018.24 1017.99 1017.10 1015.82 1014.63 1013.92 1013.59 1013.74 1014.09 1014.55 1015.02 1015.16 1015.37 1015.39 1015.32 1015.05 1014.80 1015.18 1015.52 1016.27 1017.04 1017.06 1016.89 1016.52 1016.02 1015.80 1015.66 1015.67 1015.82 1016.16 1016.45 1015.41 1015.21 1015.30 1015.13 1014.78 1014.41 1014.01 1013.55 1013.03 1012.64
1022.34 1022.30 1021.47 1020.32 1019.21 1018.50 1017.60 1016.58 1015.39 1014.77 1014.68 1014.70 1014.97 1015.15 1015.39 1015.80 1016.07 1016.46 1016.52 1016.60 1016.41 1016.10 1016.75 1017.54 1017.87 1017.93 1017.69 1016.95 1016.55 1016.22 1015.62 1015.35 1015.33 1015.34 1015.30 1015.31 1015.25 1014.78 1014.96 1015.00 1014.79 1014.49 1014.00 1013.49 1013.16
1023.16 1022.45 1022.41 1020.93 1019.59 1019.03 1018.49 1017.64 1016.76 1015.52 1015.00 1014.94 1015.31 1015.53 1015.66 1015.79 1016.00 1016.15 1016.49 1016.64 1016.64 1016.87 1017.46 1018.22 1018.70 1019.11 1018.76 1017.67 1017.10 1016.52 1015.19 1015.01 1015.11 1015.21 1015.41 1015.69 1015.41 1015.09 1014.87 1014.89 1014.63 1014.27 1014.00 1013.62 1013.16
Thickness
5723 5727 5731 5734 5737 5739 5742 5744 5747 5749 5751 5753 5754 5755 5758 5761 5766 5766 5766 5784 5787 5789 5788 5786 5784 5782 5780 5775 5782 5779 5741 5730 5748 5764 5775 5792 5799 5822 5827 5810 5811 5818 5816 5809 5816
5721 5725 5729 5733 5737 5739 5741 5744 5747 5749 5751 5753 5755 5756 5758 5761 5764 5768 5793 5793 5790 5789 5783 5777 5772 5774 5762 5772 5773 5760 5733 5746 5764 5779 5776 5785 5794 5797 5806 5799 5799 5799 5809 5802 5804
5720 5724 5729 5733 5737 5740 5743 5745 5747 5749 5752 5753 5755 5756 5757 5759 5759 5776 5801 5797 5791 5789 5787 5783 5777 5769 5758 5767 5768 5764 5746 5765 5778 5785 5787 5784 5792 5800 5800 5787 5793 5785 5790 5792 5792
5718 5723 5728 5732 5736 5740 5743 5746 5748 5750 5751 5753 5754 5757 5757 5757 5742 5789 5799 5795 5790 5788 5783 5777 5768 5756 5753 5753 5769 5757 5770 5772 5784 5792 5789 5786 5796 5789 5792 5794 5807 5803 5797 5793 5791
5717 5722 5727 5731 5736 5741 5745 5747 5749 5751 5751 5752 5753 5755 5758 5750 5758 5793 5791 5789 5786 5782 5775 5769 5763 5761 5752 5760 5766 5759 5769 5780 5788 5786 5789 5797 5788 5786 5786 5799 5806 5805 5795 5787 5789
5715 5720 5725 5730 5735 5740 5745 5749 5751 5751 5751 5751 5751 5751 5752 5738 5788 5791 5788 5783 5781 5776 5773 5766 5763 5768 5761 5759 5757 5770 5773 5777 5788 5788 5789 5787 5785 5788 5789 5800 5798 5798 5793 5795 5795
5715 5720 5725 5730 5736 5741 5745 5749 5751 5752 5751 5750 5751 5751 5746 5755 5788 5786 5783 5779 5781 5776 5765 5772 5772 5763 5762 5752 5765 5767 5758 5768 5778 5784 5781 5785 5771 5774 5788 5794 5792 5792 5790 5792 5797
5714 5720 5726 5732 5737 5742 5747 5751 5752 5752 5752 5750 5749 5748 5741 5783 5785 5778 5777 5773 5778 5777 5771 5776 5777 5763 5757 5758 5750 5745 5748 5731 5760 5772 5776 5765 5747 5777 5789 5783 5781 5784 5785 5787 5793
5714 5721 5727 5732 5738 5743 5749 5753 5754 5752 5749 5747 5745 5743 5739 5781 5771 5782 5778 5764 5772 5771 5770 5776 5766 5747 5744 5726 5710 5718 5708 5722 5736 5761 5755 5752 5749 5774 5784 5779 5775 5777 5782 5786 5788
5712 5720 5726 5732 5736 5742 5748 5755 5753 5752 5747 5745 5746 5730 5753 5762 5778 5781 5781 5772 5760 5760 5752 5748 5731 5721 5712 5702 5681 5699 5707 5714 5717 5749 5748 5743 5754 5766 5778 5772 5773 5773 5778 5783 5785
5710 5717 5724 5731 5736 5739 5745 5748 5743 5738 5742 5741 5744 5744 5759 5774 5778 5769 5774 5762 5758 5746 5719 5729 5708 5694 5710 5713 5718 5715 5710 5706 5727 5745 5744 5738 5739 5753 5767 5767 5765 5769 5772 5771 5777
5707 5715 5723 5732 5737 5737 5736 5737 5742 5745 5734 5752 5755 5758 5765 5766 5744 5758 5766 5737 5731 5714 5722 5707 5694 5718 5723 5720 5714 5713 5705 5709 5725 5745 5736 5732 5735 5748 5754 5757 5764 5765 5766 5771 5775
5702 5709 5717 5727 5734 5734 5735 5738 5751 5749 5721 5751 5761 5756 5754 5754 5738 5740 5749 5736 5722 5707 5707 5693 5714 5726 5717 5715 5706 5711 5712 5709 5711 5726 5727 5722 5710 5731 5746 5756 5762 5765 5766 5769 5769
5697 5703 5710 5720 5729 5723 5727 5741 5742 5741 5688 5720 5744 5756 5755 5749 5729 5755 5752 5735 5716 5702 5699 5696 5720 5714 5709 5705 5713 5700 5724 5716 5714 5700 5681 5715 5668 5708 5732 5733 5744 5754 5757 5763 5769
5693 5698 5703 5701 5703 5710 5726 5731 5733 5717 5652 5733 5737 5765 5753 5734 5740 5741 5754 5732 5706 5703 5696 5697 5705 5701 5696 5707 5717 5697 5722 5715 5712 5697 5687 5691 5673 5706 5721 5716 5728 5738 5749 5753 5762
5689 5696 5695 5696 5695 5713 5719 5722 5714 5668 5650 5709 5727 5724 5720 5728 5728 5734 5730 5734 5723 5700 5701 5699 5718 5712 5711 5721 5717 5719 5708 5696 5683 5673 5662 5678 5673 5700 5695 5705 5718 5733 5740 5744 5751
5685 5692 5691 5690 5696 5709 5709 5697 5657 5641 5697 5685 5696 5707 5707 5702 5709 5709 5703 5697 5682 5669 5667 5687 5693 5708 5710 5693 5706 5694 5672 5637 5632 5634 5656 5675 5662 5676 5698 5699 5697 5706 5715 5722 5731
5679 5687 5688 5691 5698 5693 5687 5664 5641 5667 5674 5691 5689 5694 5684 5686 5688 5691 5691 5682 5687 5675 5656 5651 5650 5683 5693 5678 5673 5683 5667 5632 5614 5613 5647 5668 5646 5672 5689 5689 5692 5699 5699 5710 5715
5669 5677 5679 5688 5688 5681 5658 5631 5637 5656 5667 5666 5674 5666 5665 5674 5674 5674 5668 5668 5662 5667 5647 5634 5646 5683 5681 5682 5680 5663 5645 5664 5637 5642 5626 5637 5662 5677 5678 5677 5683 5686 5689 5689 5691
5645 5647 5661 5679 5677 5660 5634 5625 5645 5657 5660 5657 5645 5648 5637 5646 5647 5648 5652 5657 5650 5653 5652 5633 5624 5652 5670 5676 5665 5656 5658 5633 5617 5608 5599 5621 5636 5640 5645 5654 5665 5673 5670 5671 5679
5630 5635 5658 5663 5662 5631 5611 5619 5636 5644 5645 5635 5629 5628 5628 5625 5634 5634 5639 5639 5642 5636 5635 5626 5620 5622 5648 5636 5632 5628 5623 5625 5609 5602 5587 5578 5600 5630 5627 5635 5644 5647 5653 5654 5663
5595 5613 5648 5648 5618 5607 5607 5622 5626 5626 5628 5624 5623 5616 5612 5611 5616 5621 5621 5627 5630 5632 5612 5614 5601 5594 5612 5629 5634 5629 5606 5597 5568 5581 5577 5572 5577 5622 5621 5615 5618 5622 5629 5638 5640
5570 5581 5626 5629 5584 5581 5595 5607 5614 5612 5609 5609 5603 5603 5605 5599 5594 5610 5611 5612 5616 5610 5603 5604 5579 5565 5580 5591 5599 5592 5592 5589 5576 5561 5565 5559 5567 5609 5597 5595 5597 5600 5611 5617 5628
5562 5574 5580 5583 5574 5575 5571 5584 5587 5603 5599 5600 5596 5592 5590 5585 5585 5585 5590 5599 5597 5598 5600 5588 5569 5562 5546 5565 5572 5568 5572 5573 5564 5517 5553 5562 5569 5577 5570 5572 5573 5583 5587 5590 5598
5548 5552 5558 5549 5560 5557 5561 5572 5575 5576 5587 5586 5580 5577 5572 5569 5567 5567 5571 5576 5581 5576 5571 5562 5554 5560 5559 5562 5567 5562 5561 5565 5559 5551 5537 5561 5556 5554 5554 5558 5560 5561 5565 5572 5576
5535 5527 5532 5539 5548 5551 5552 5561 5569 5572 5570 5568 5564 5567 5560 5558 5560 5553 5552 5551 5555 5561 5552 5535 5534 5542 5542 5554 5548 5540 5551 5550 5552 5554 5548 5546 5543 5550 5546 5541 5543 5541 5547 5547 5549
5519 5524 5519 5531 5543 5543 5541 5546 5551 5562 5569 5564 5557 5552 5552 5553 5553 5551 5547 5547 5546 5546 5535 5530 5516 5503 5507 5536 5532 5517 5536 5539 5538 5537 5533 5524 5529 5532 5534 5530 5530 5528 5531 5529 5533